EW5586 Weather Reports


Display with metric or nautical units.
time (UTC)temp
F
wind
direction
speed
MPH
gust
MPH
rain 1hr
in
rain 24hr
in
rain mn
in
humidity
%
barometer
mb
20260906132908 59 29 1.0 11.0 0.00 0.00 0.00 90 1019.3
20260906132402 59 10 1.0 11.0 0.00 0.00 0.00 91 1019.3
20260906131350 59 24 2.0 10.0 0.00 0.00 0.00 92 1019.1
20260906130844 59 19 1.0 10.0 0.00 0.00 0.00 92 1019.0
20260906130338 59 339 1.0 6.0 0.00 0.00 0.00 93 1019.1
20260906125832 58 351 1.0 6.0 0.00 0.00 0.00 93 1019.1
20260906125326 58 340 1.0 8.0 0.00 0.00 0.00 93 1019.1
20260906124821 58 33 2.0 8.0 0.00 0.00 0.00 93 1019.1
20260906124314 58 355 2.0 9.0 0.00 0.00 0.00 93 1019.1
20260906123808 58 0 1.0 9.0 0.00 0.00 0.00 94 1019.0
20260906123302 58 41 1.0 6.0 0.00 0.00 0.00 94 1019.0
20260906122756 57 323 2.0 10.0 0.00 0.00 0.00 94 1019.0
20260906120732 57 355 0.0 6.0 0.00 0.00 0.00 95 1018.9
20260906120226 56 324 1.0 8.0 0.00 0.00 0.00 95 1018.7
20260906115720 56 0 0.0 8.0 0.00 0.00 0.00 95 1018.6
20260906115214 56 39 1.0 9.0 0.00 0.00 0.00 95 1018.6
20260906114709 56 5 1.0 9.0 0.00 0.00 0.00 95 1018.6
20260906113656 56 18 1.0 8.0 0.00 0.00 0.00 95 1018.5
20260906113150 56 9 1.0 8.0 0.00 0.00 0.00 95 1018.5
20260906112645 56 347 0.0 6.0 0.00 0.00 0.00 95 1018.4
20260906112139 56 40 1.0 4.0 0.00 0.00 0.00 95 1018.4
20260906111637 0 0.0 0.0 0.00 0.00 0.00 1018.3
20260906111115 0 0.0 0.0 0.00 0.00 0.00 1018.3
20260906110608 0 0.0 0.0 0.00 0.00 0.00 1018.2
20260906110019 0 0.0 0.0 0.00 0.00 0.00 1018.2
20260906105510 0 0.0 0.0 0.00 0.00 0.00 1018.1
20260906104328 0 0.0 0.0 0.00 0.00 0.00 1017.9
20260906103812 0 0.0 0.0 0.00 0.00 0.00 1017.8
20260906101526 0 0.0 0.0 0.00 0.00 0.00 1017.5
20260906101025 0 0.0 0.0 0.00 0.00 0.00 1017.5
20260906095916 0 0.0 0.0 0.00 0.00 0.00 1017.6
20260906095326 0 0.0 0.0 0.00 0.00 0.00 1017.5
20260906094824 0 0.0 0.0 0.00 0.00 0.00 1017.4
20260906094324 0 0.0 0.0 0.00 0.00 0.00 1017.3
20260906093818 0 0.0 0.0 0.00 0.00 0.00 1017.3
20260906092721 0 0.0 0.0 0.00 0.00 0.00 1017.2
20260906092212 0 0.0 0.0 0.00 0.00 0.00 1017.2
20260906091622 0 0.0 0.0 0.00 0.00 0.00 1017.1
20260906091119 0 0.0 0.0 0.00 0.00 0.00 1017.1
20260906090530 0 0.0 0.0 0.00 0.00 0.00 1017.0
20260906090031 0 0.0 0.0 0.00 0.00 0.00 1016.9
20260906085524 0 0.0 0.0 0.00 0.00 0.00 1016.9
20260906085024 0 0.0 0.0 0.00 0.00 0.00 1016.9
20260906084524 0 0.0 0.0 0.00 0.00 0.00 1016.9
20260906084014 0 0.0 0.0 0.00 0.00 0.00 1016.8
20260906083427 0 0.0 0.0 0.00 0.00 0.00 1016.7
20260906082407 0 0.0 0.0 0.00 0.00 0.00 1016.5
20260906081316 0 0.0 0.0 0.00 0.00 0.00 1016.3
20260906080815 0 0.0 0.0 0.00 0.00 0.00 1016.3
20260906080217 60 355 1.0 6.0 0.00 0.00 0.00 90 1016.3
20260906075715 60 355 1.0 6.0 0.00 0.00 0.00 90 1016.3
20260906075154 60 355 1.0 7.0 0.00 0.00 0.00 90 1016.3
20260906074638 60 355 1.0 7.0 0.00 0.00 0.00 90 1016.4
20260906074132 60 11 1.0 8.0 0.00 0.00 0.00 90 1016.3
20260906073632 60 355 1.0 8.0 0.00 0.00 0.00 90 1016.3
20260906072127 60 348 1.0 7.0 0.00 0.00 0.00 90 1016.2
20260906070627 60 14 2.0 15.0 0.00 0.00 0.00 91 1016.1
20260906070128 60 332 2.0 9.0 0.00 0.00 0.00 91 1016.0
20260906065627 60 5 2.0 7.0 0.00 0.00 0.00 92 1015.9
20260906064626 60 37 3.0 9.0 0.00 0.00 0.00 92 1015.8
20260906064125 60 355 2.0 10.0 0.00 0.00 0.00 93 1015.8
20260906063625 60 348 3.0 12.0 0.00 0.00 0.00 93 1015.8
20260906063124 61 41 2.0 12.0 0.00 0.00 0.00 94 1015.8
20260906062622 61 350 1.0 9.0 0.00 0.00 0.00 94 1015.8
20260906062122 61 20 0.0 9.0 0.00 0.00 0.00 94 1015.8
20260906061122 61 44 1.0 5.0 0.00 0.00 0.00 94 1015.8
20260906060618 61 31 1.0 5.0 0.00 0.00 0.00 94 1015.8
20260906060118 61 44 0.0 5.0 0.00 0.00 0.00 94 1015.8
20260906055615 61 22 1.0 6.0 0.00 0.00 0.00 94 1015.7
20260906055114 61 16 1.0 6.0 0.00 0.00 0.00 94 1015.7
20260906054614 61 23 2.0 6.0 0.00 0.00 0.00 93 1015.7
20260906054113 61 31 1.0 6.0 0.00 0.00 0.00 93 1015.7
20260906053612 62 346 0.0 0.0 0.00 0.00 0.00 93 1015.7
20260906053112 62 11 0.0 0.0 0.00 0.00 0.00 93 1015.6
20260906052609 62 0 0.0 0.0 0.00 0.00 0.00 93 1015.7
20260906052106 62 355 0.0 0.0 0.00 0.00 0.00 93 1015.7
20260906051605 62 20 0.0 0.0 0.00 0.00 0.00 92 1015.6
20260906051059 62 9 0.0 0.0 0.00 0.00 0.00 92 1015.6
20260906050553 62 355 0.0 0.0 0.00 0.00 0.00 92 1015.6
20260906050048 63 10 0.0 0.0 0.00 0.00 0.00 92 1015.5
20260906045541 63 350 0.0 0.0 0.00 0.00 0.00 92 1015.5
20260906044530 63 355 0.0 0.0 0.00 0.00 0.00 92 1015.4
20260906044023 63 355 0.0 0.0 0.00 0.00 0.00 92 1015.5
20260906043517 63 5 0.0 0.0 0.00 0.00 0.00 92 1015.4
20260906042505 63 5 0.0 0.0 0.00 0.00 0.00 92 1015.3
20260906041959 63 345 0.0 0.0 0.00 0.00 0.00 91 1015.3
20260906041454 63 355 0.0 0.0 0.00 0.00 0.00 91 1015.3
20260906040947 63 349 0.0 0.0 0.00 0.00 0.00 91 1015.3
20260906040446 63 355 0.0 0.0 0.00 0.00 0.00 91 1015.3
20260906035945 63 355 0.0 2.0 0.00 0.00 0.00 91 1015.2
20260906035446 64 355 0.0 4.0 0.00 0.00 0.00 91 1015.3
20260906034944 64 327 0.0 4.0 0.00 0.00 0.00 90 1015.3
20260906034444 64 329 0.0 4.0 0.00 0.00 0.00 90 1015.2
20260906033444 64 355 0.0 4.0 0.00 0.00 0.00 90 1015.1
20260906032948 64 340 0.0 4.0 0.00 0.00 0.00 89 1015.0
20260906031946 65 23 1.0 5.0 0.00 0.00 0.00 89 1015.0
20260906031444 65 355 1.0 9.0 0.00 0.00 0.00 89 1015.0
20260906030444 65 25 0.0 0.0 0.00 0.00 0.00 89 1015.0
20260906025944 65 10 0.0 0.0 0.00 0.00 0.00 89 1015.0
20260906025443 65 351 0.0 0.0 0.00 0.00 0.00 88 1015.0
20260906024944 65 355 0.0 0.0 0.00 0.00 0.00 88 1015.1
20260906024441 65 22 0.0 0.0 0.00 0.00 0.00 88 1015.0
20260906023936 65 351 0.0 0.0 0.00 0.00 0.00 88 1014.9
20260906023429 65 339 0.0 0.0 0.00 0.00 0.00 87 1014.8
20260906022923 65 5 0.0 0.0 0.00 0.00 0.00 87 1014.9
20260906022418 65 339 0.0 0.0 0.00 0.00 0.00 87 1014.9
20260906021911 65 12 0.0 0.0 0.00 0.00 0.00 86 1014.7
20260906021406 66 15 0.0 0.0 0.00 0.00 0.00 86 1014.8
20260906020859 66 306 0.0 0.0 0.00 0.00 0.00 86 1014.8
20260906020353 66 19 0.0 0.0 0.00 0.00 0.00 86 1014.8
20260906015847 66 345 0.0 0.0 0.00 0.00 0.00 86 1014.8
20260906015341 66 5 0.0 0.0 0.00 0.00 0.00 86 1014.9
20260906014835 66 0 0.0 0.0 0.00 0.00 0.00 86 1014.8
20260906013823 66 340 0.0 0.0 0.00 0.00 0.00 86 1014.7
20260906013317 66 28 0.0 0.0 0.00 0.00 0.00 86 1014.6
20260906012811 66 11 0.0 0.0 0.00 0.00 0.00 87 1014.6
20260906012306 66 329 0.0 0.0 0.00 0.00 0.00 87 1014.6
20260906011800 66 342 0.0 0.0 0.00 0.00 0.00 87 1014.6
20260906010747 66 5 0.0 0.0 0.00 0.00 0.00 87 1014.5
20260906010241 67 348 0.0 0.0 0.00 0.00 0.00 87 1014.5
20260906005735 67 355 0.0 0.0 0.00 0.00 0.00 87 1014.4
20260906004217 67 351 0.0 0.0 0.00 0.00 0.00 86 1014.3
20260906003712 67 351 0.0 0.0 0.00 0.00 0.00 85 1014.3
20260906003205 67 0 0.0 0.0 0.00 0.00 0.00 85 1014.3
20260906002659 67 348 0.0 0.0 0.00 0.00 0.00 85 1014.4
20260906002152 67 355 0.0 1.0 0.00 0.00 0.00 85 1014.4
20260906001647 67 355 0.0 1.0 0.00 0.00 0.00 85 1014.3
20260906001141 67 5 0.0 0.0 0.00 0.00 0.00 84 1014.3
20260906000635 67 5 0.0 3.0 0.00 0.00 0.00 84 1014.2
20260906000128 68 355 0.0 3.0 0.00 0.00 0.00 85 1014.2
20260905235624 68 342 0.0 0.0 0.00 0.00 0.00 85 1014.0
20260905235116 68 342 0.0 0.0 0.00 0.00 0.00 84 1014.0
20260905234105 68 355 0.0 0.0 0.00 0.00 0.00 83 1014.0
20260905233559 68 346 0.0 0.0 0.00 0.00 0.00 83 1014.0
20260905233053 68 346 0.0 0.0 0.00 0.00 0.00 82 1014.1
20260905232041 68 355 0.0 0.0 0.00 0.00 0.00 82 1014.3
20260905231535 69 14 0.0 0.0 0.00 0.00 0.00 81 1014.2
20260905231029 69 11 0.0 0.0 0.00 0.00 0.00 81 1014.2
20260905230523 69 350 0.0 0.0 0.00 0.00 0.00 81 1014.1
20260905230017 69 11 0.0 0.0 0.00 0.00 0.00 80 1014.1
20260905225518 69 18 0.0 0.0 0.00 0.00 0.00 80 1014.0
20260905225017 69 355 0.0 0.0 0.00 0.00 0.00 80 1013.9
20260905224518 69 0 0.0 0.0 0.00 0.00 0.00 80 1013.9
20260905224018 70 25 0.0 2.0 0.00 0.00 0.00 79 1013.8
20260905223517 70 11 0.0 4.0 0.00 0.00 0.00 79 1013.8
20260905223018 70 355 0.0 4.0 0.00 0.00 0.00 78 1013.7
20260905221517 70 16 4.0 9.0 0.00 0.00 0.00 77 1013.6
20260905221017 71 341 2.0 9.0 0.00 0.00 0.00 76 1013.6
20260905220017 71 332 0.0 4.0 0.00 0.00 0.00 77 1013.6
20260905215518 71 9 0.0 0.0 0.00 0.00 0.00 76 1013.6
20260905214518 71 20 0.0 4.0 0.00 0.00 0.00 76 1013.4
20260905214016 71 355 0.0 4.0 0.00 0.00 0.00 75 1013.4
20260905213513 72 0 0.0 0.0 0.00 0.00 0.00 75 1013.3
20260905213007 72 0 0.0 0.0 0.00 0.00 0.00 75 1013.2
20260905212501 72 5 0.0 0.0 0.00 0.00 0.00 77 1013.1
20260905212007 72 21 0.0 0.0 0.00 0.00 0.00 75 1013.1
20260905211449 72 26 0.0 0.0 0.00 0.00 0.00 76 1013.1
20260905210943 72 18 0.0 0.0 0.00 0.00 0.00 78 1013.1
20260905210438 72 5 0.0 0.0 0.00 0.00 0.00 77 1013.1
20260905205931 72 34 0.0 0.0 0.00 0.00 0.00 76 1013.1
20260905205426 72 355 0.0 0.0 0.00 0.00 0.00 75 1013.0
20260905204924 72 5 0.0 0.0 0.00 0.00 0.00 75 1013.1
20260905204423 72 20 0.0 0.0 0.00 0.00 0.00 75 1013.1
20260905203925 72 348 0.0 0.0 0.00 0.00 0.00 75 1013.1
20260905203423 73 9 0.0 0.0 0.00 0.00 0.00 75 1013.1
20260905202923 73 338 0.0 0.0 0.00 0.00 0.00 75 1013.1
20260905202423 73 338 0.0 0.0 0.00 0.00 0.00 74 1013.1
20260905201923 74 338 0.0 4.0 0.00 0.00 0.00 71 1013.2
20260905201423 74 18 0.0 4.0 0.00 0.00 0.00 71 1013.1
20260905200924 75 338 0.0 0.0 0.00 0.00 0.00 72 1013.1
20260905200423 75 348 0.0 0.0 0.00 0.00 0.00 72 1013.1
20260905195923 75 355 0.0 0.0 0.00 0.00 0.00 72 1013.1
20260905195424 75 355 0.0 0.0 0.00 0.00 0.00 74 1013.1
20260905194424 75 355 0.0 1.0 0.00 0.00 0.00 73 1013.0
20260905193922 76 355 0.0 1.0 0.00 0.00 0.00 73 1013.0
20260905193421 75 336 0.0 2.0 0.00 0.00 0.00 73 1013.0
20260905192921 75 201 0.0 2.0 0.00 0.00 0.00 73 1013.0
20260905192420 74 198 0.0 0.0 0.00 0.00 0.00 76 1013.0
20260905191917 74 187 0.0 1.0 0.00 0.00 0.00 73 1013.0
20260905191415 73 267 0.0 1.0 0.00 0.00 0.00 75 1013.0
20260905190916 73 269 0.0 0.0 0.00 0.00 0.00 75 1013.0
20260905190415 73 282 0.0 1.0 0.00 0.00 0.00 78 1013.1
20260905185916 72 197 0.0 2.0 0.00 0.00 0.00 76 1013.1
20260905184915 72 161 2.0 6.0 0.00 0.00 0.00 77 1013.1
20260905184415 72 191 3.0 6.0 0.00 0.00 0.00 74 1013.0
20260905183915 72 197 3.0 5.0 0.00 0.00 0.00 74 1013.1
20260905183415 72 196 2.0 5.0 0.00 0.00 0.00 74 1013.1
20260905182913 73 178 1.0 5.0 0.00 0.00 0.00 73 1013.1
20260905182413 73 196 0.0 3.0 0.00 0.00 0.00 75 1013.0
20260905181413 73 221 0.0 3.0 0.00 0.00 0.00 74 1013.0
20260905180912 73 175 0.0 0.0 0.00 0.00 0.00 78 1013.0
20260905175911 73 355 1.0 5.0 0.00 0.00 0.00 75 1013.2
20260905174911 75 190 0.0 4.0 0.00 0.00 0.00 73 1013.3
20260905174410 75 185 0.0 0.0 0.00 0.00 0.00 72 1013.3
20260905173911 75 246 0.0 3.0 0.00 0.00 0.00 72 1013.4
20260905173411 76 221 0.0 3.0 0.00 0.00 0.00 75 1013.4
20260905172907 75 225 0.0 1.0 0.00 0.00 0.00 75 1013.4
20260905172408 75 49 0.0 0.0 0.00 0.00 0.00 77 1013.5
20260905171907 74 267 0.0 3.0 0.00 0.00 0.00 77 1013.5
20260905171407 74 174 0.0 3.0 0.00 0.00 0.00 77 1013.5
20260905165907 74 316 0.0 0.0 0.00 0.00 0.00 80 1013.7
20260905165407 73 5 0.0 1.0 0.00 0.00 0.00 80 1013.6
20260905164907 72 175 0.0 1.0 0.00 0.00 0.00 81 1013.6
20260905163903 71 273 0.0 1.0 0.00 0.00 0.00 85 1013.7
20260905163403 70 208 0.0 4.0 0.00 0.00 0.00 84 1013.7
20260905162903 69 5 1.0 7.0 0.00 0.00 0.00 83 1013.8
20260905162403 69 22 1.0 7.0 0.00 0.00 0.00 81 1013.8
20260905161904 70 24 0.0 0.0 0.00 0.00 0.00 81 1013.8
20260905160904 70 30 0.0 0.0 0.00 0.00 0.00 83 1013.7
20260905160403 69 343 0.0 3.0 0.00 0.00 0.00 89 1013.6
20260905155900 68 5 0.0 4.0 0.00 0.00 0.00 87 1013.7
20260905155358 68 348 0.0 4.0 0.00 0.00 0.00 87 1013.8
20260905154859 68 5 0.0 2.0 0.00 0.00 0.00 86 1013.8
20260905154359 67 355 0.0 2.0 0.00 0.00 0.00 88 1013.8
20260905153859 67 19 0.0 0.0 0.00 0.00 0.00 87 1013.8
20260905152859 67 339 0.0 0.0 0.00 0.00 0.00 88 1013.9
20260905152357 67 5 0.0 0.0 0.00 0.00 0.00 89 1013.9
20260905151855 67 323 0.0 0.0 0.00 0.00 0.00 88 1013.9
20260905151355 66 348 0.0 0.0 0.00 0.00 0.00 89 1013.8
20260905150854 66 11 0.0 2.0 0.00 0.00 0.00 88 1013.9
20260905145849 66 19 0.0 5.0 0.00 0.00 0.00 88 1013.9
20260905144849 66 5 1.0 4.0 0.00 0.00 0.00 88 1013.8
20260905143847 66 31 0.0 1.0 0.00 0.00 0.00 89 1013.8
20260905143345 66 0 0.0 1.0 0.00 0.00 0.00 89 1013.9
20260905142845 66 12 0.0 0.0 0.00 0.00 0.00 89 1013.9
20260905141842 66 20 0.0 3.0 0.00 0.00 0.00 90 1013.9
20260905141343 65 22 0.0 3.0 0.00 0.00 0.00 90 1013.8
20260905140842 65 355 0.0 0.0 0.00 0.00 0.00 91 1013.8
20260905140341 65 5 0.0 0.0 0.00 0.00 0.00 91 1013.8
20260905135837 65 5 0.0 0.0 0.00 0.00 0.00 91 1013.8
20260905135337 65 5 0.0 0.0 0.00 0.00 0.00 92 1013.9
20260905134834 64 0 0.0 0.0 0.00 0.00 0.00 92 1013.9
20260905134334 64 340 0.0 2.0 0.00 0.00 0.00 92 1013.9
20260905133830 64 327 1.0 5.0 0.00 0.00 0.00 92 1013.9